When you browse on this site, cookies collect data to enhance your experience and personalize the content and advertising you see.
Visit our Privacy Policy to learn more. By continuing to use the site, you agree to this use of cookies and data.
  • In Slovakia
  • List of Countries
  • For 7 days
  • Water Temperature
  • Weather Map
  • Weather Widgets
  • user-avatar
    Login

    Hourly Weather Pankratovichi

    Today, 16 September, Monday

    Time Temperature Precipitation Wind Pressure Humidity
    00:00 +14°C° 0.1 mm 6 mps 741 mmHg 67%
    01:00 +14°C° 0.1 mm 6 mps 740 mmHg 71%
    02:00 +14°C° 0 mm 5 mps 740 mmHg 70%
    03:00 +13°C° 0.1 mm 5 mps 740 mmHg 71%
    04:00 +13°C° 0.1 mm 6 mps 740 mmHg 72%
    05:00 +11°C° 0.1 mm 6 mps 740 mmHg 74%
    06:00 +11°C° 0 mm 6 mps 740 mmHg 74%
    07:00 +11°C° 0 mm 7 mps 740 mmHg 73%
    08:00 +12°C° 0 mm 7 mps 740 mmHg 73%
    09:00 +12°C° 0 mm 7 mps 740 mmHg 68%
    10:00 +13°C° 0 mm 8 mps 740 mmHg 62%
    11:00 +15°C° 0 mm 8 mps 740 mmHg 56%
    12:00 +15°C° 0 mm 8 mps 740 mmHg 57%
    13:00 +15°C° 0 mm 8 mps 740 mmHg 58%
    14:00 +13°C° 0 mm 8 mps 740 mmHg 59%
    15:00 +13°C° 0 mm 8 mps 740 mmHg 59%
    16:00 +14°C° 0 mm 7 mps 740 mmHg 60%
    17:00 +12°C° 0 mm 7 mps 740 mmHg 61%
    18:00 +11°C° 0 mm 7 mps 740 mmHg 64%
    19:00 +11°C° 0 mm 6 mps 740 mmHg 66%
    20:00 +10°C° 0 mm 5 mps 740 mmHg 69%
    21:00 +9°C° 0 mm 5 mps 740 mmHg 71%
    22:00 +9°C° 0 mm 5 mps 739 mmHg 73%
    23:00 +8°C° 0 mm 5 mps 739 mmHg 76%

    Tomorrow, 17 September, Tuesday

    Time Temperature Precipitation Wind Pressure Humidity
    00:00 +8°C° 0 mm 5 mps 739 mmHg 76%
    01:00 +8°C° 0 mm 5 mps 739 mmHg 76%
    02:00 +7°C° 0 mm 5 mps 739 mmHg 76%
    03:00 +7°C° 0 mm 5 mps 739 mmHg 77%
    04:00 +6°C° 0 mm 5 mps 738 mmHg 78%
    05:00 +6°C° 0 mm 5 mps 738 mmHg 80%
    06:00 +6°C° 0 mm 5 mps 738 mmHg 79%
    07:00 +7°C° 0 mm 6 mps 738 mmHg 79%
    08:00 +8°C° 0 mm 6 mps 738 mmHg 78%
    09:00 +9°C° 0 mm 6 mps 738 mmHg 72%
    10:00 +10°C° 0 mm 7 mps 738 mmHg 67%
    11:00 +12°C° 0 mm 7 mps 738 mmHg 61%
    12:00 +12°C° 0.2 mm 7 mps 737 mmHg 61%
    13:00 +12°C° 0.2 mm 7 mps 737 mmHg 60%
    14:00 +14°C° 0.2 mm 7 mps 736 mmHg 60%
    15:00 +13°C° 0.4 mm 6 mps 736 mmHg 64%
    16:00 +11°C° 0.4 mm 6 mps 736 mmHg 68%
    17:00 +12°C° 0.4 mm 5 mps 735 mmHg 72%
    18:00 +10°C° 0.3 mm 5 mps 735 mmHg 76%
    19:00 +10°C° 0.3 mm 4 mps 734 mmHg 81%
    20:00 +8°C° 0.3 mm 4 mps 734 mmHg 85%
    21:00 +8°C° 0.2 mm 5 mps 734 mmHg 85%
    22:00 +7°C° 0.2 mm 6 mps 734 mmHg 85%
    23:00 +5°C° 0.2 mm 7 mps 733 mmHg 86%

    Day after tomorrow, 18 September, Wednesday

    Time Temperature Precipitation Wind Pressure Humidity
    00:00 +5°C° 0 mm 7 mps 733 mmHg 88%
    01:00 +4°C° 0 mm 6 mps 733 mmHg 89%
    02:00 +3°C° 0 mm 5 mps 733 mmHg 91%
    03:00 +3°C° 0 mm 5 mps 733 mmHg 90%
    04:00 +4°C° 0 mm 6 mps 733 mmHg 89%
    05:00 +4°C° 0 mm 6 mps 733 mmHg 87%
    06:00 +4°C° 0 mm 6 mps 734 mmHg 86%
    07:00 +4°C° 0 mm 7 mps 734 mmHg 85%
    08:00 +4°C° 0 mm 7 mps 734 mmHg 84%
    09:00 +5°C° 0.2 mm 7 mps 735 mmHg 83%
    10:00 +5°C° 0.2 mm 7 mps 736 mmHg 82%
    11:00 +6°C° 0.2 mm 7 mps 736 mmHg 80%
    12:00 +8°C° 0.1 mm 7 mps 737 mmHg 77%
    13:00 +9°C° 0.1 mm 7 mps 737 mmHg 73%
    14:00 +10°C° 0.1 mm 7 mps 738 mmHg 70%
    15:00 +10°C° 0 mm 6 mps 738 mmHg 69%
    16:00 +10°C° 0 mm 6 mps 739 mmHg 69%
    17:00 +10°C° 0 mm 5 mps 740 mmHg 68%
    18:00 +9°C° 0.1 mm 5 mps 740 mmHg 75%
    19:00 +8°C° 0.1 mm 5 mps 740 mmHg 81%
    20:00 +7°C° 0.1 mm 5 mps 741 mmHg 87%
    21:00 +6°C° 0 mm 5 mps 741 mmHg 89%
    22:00 +6°C° 0 mm 5 mps 741 mmHg 91%
    23:00 +6°C° 0 mm 5 mps 742 mmHg 94%

    19 September, Thursday

    Time Temperature Precipitation Wind Pressure Humidity
    00:00 +6°C° 0 mm 5 mps 742 mmHg 92%
    01:00 +7°C° 0 mm 5 mps 742 mmHg 90%
    02:00 +7°C° 0 mm 5 mps 743 mmHg 88%
    03:00 +7°C° 0 mm 5 mps 743 mmHg 88%
    04:00 +6°C° 0 mm 5 mps 743 mmHg 87%
    05:00 +6°C° 0 mm 5 mps 743 mmHg 87%
    06:00 +6°C° 0 mm 5 mps 743 mmHg 87%
    07:00 +6°C° 0 mm 5 mps 744 mmHg 86%
    08:00 +6°C° 0 mm 5 mps 744 mmHg 86%
    09:00 +7°C° 0 mm 5 mps 744 mmHg 81%
    10:00 +8°C° 0 mm 4 mps 745 mmHg 76%
    11:00 +10°C° 0 mm 4 mps 745 mmHg 72%
    12:00 +11°C° 0.4 mm 4 mps 745 mmHg 70%
    13:00 +11°C° 0.4 mm 4 mps 745 mmHg 69%
    14:00 +12°C° 0.4 mm 4 mps 745 mmHg 68%
    15:00 +11°C° 0.2 mm 4 mps 745 mmHg 70%
    16:00 +11°C° 0.2 mm 3 mps 745 mmHg 72%
    17:00 +11°C° 0.2 mm 3 mps 745 mmHg 73%
    18:00 +9°C° 0.1 mm 3 mps 745 mmHg 78%
    19:00 +8°C° 0.1 mm 3 mps 745 mmHg 82%
    20:00 +7°C° 0.1 mm 2 mps 745 mmHg 87%
    21:00 +7°C° 0 mm 3 mps 745 mmHg 87%
    22:00 +7°C° 0 mm 3 mps 745 mmHg 87%
    23:00 +5°C° 0 mm 3 mps 745 mmHg 87%

    20 September, Friday

    Time Temperature Precipitation Wind Pressure Humidity
    00:00 +5°C° 0 mm 4 mps 745 mmHg 89%
    01:00 +4°C° 0 mm 4 mps 745 mmHg 91%
    02:00 +3°C° 0 mm 5 mps 746 mmHg 93%
    03:00 +3°C° 0 mm 5 mps 746 mmHg 93%
    04:00 +2°C° 0 mm 5 mps 746 mmHg 94%
    05:00 +2°C° 0 mm 5 mps 746 mmHg 94%
    06:00 +2°C° 0 mm 6 mps 746 mmHg 91%
    07:00 +3°C° 0 mm 6 mps 746 mmHg 88%
    08:00 +3°C° 0 mm 7 mps 746 mmHg 85%
    09:00 +4°C° 0.2 mm 6 mps 747 mmHg 82%
    10:00 +6°C° 0.2 mm 5 mps 747 mmHg 80%
    11:00 +6°C° 0.2 mm 5 mps 747 mmHg 78%
    12:00 +7°C° 0.3 mm 5 mps 747 mmHg 72%
    13:00 +8°C° 0.3 mm 5 mps 747 mmHg 67%
    14:00 +9°C° 0.3 mm 5 mps 747 mmHg 62%
    15:00 +10°C° 0.4 mm 4 mps 748 mmHg 65%
    16:00 +8°C° 0.4 mm 4 mps 748 mmHg 69%
    17:00 +8°C° 0.4 mm 4 mps 748 mmHg 72%
    18:00 +6°C° 0 mm 4 mps 749 mmHg 78%
    19:00 +5°C° 0 mm 4 mps 749 mmHg 83%
    20:00 +4°C° 0 mm 3 mps 750 mmHg 89%
    21:00 +3°C° 0 mm 3 mps 750 mmHg 90%
    22:00 +3°C° 0 mm 3 mps 750 mmHg 91%
    23:00 +2°C° 0 mm 3 mps 751 mmHg 92%

    21 September, Saturday

    Time Temperature Precipitation Wind Pressure Humidity
    00:00 +2°C° 0 mm 3 mps 751 mmHg 92%
    01:00 +1°C° 0 mm 3 mps 751 mmHg 93%
    02:00 +1°C° 0 mm 3 mps 751 mmHg 94%
    03:00 +1°C° 0 mm 3 mps 751 mmHg 93%
    04:00 +1°C° 0 mm 3 mps 751 mmHg 92%
    05:00 0°C° 0 mm 3 mps 751 mmHg 92%
    06:00 +2°C° 0 mm 2 mps 752 mmHg 87%
    07:00 +3°C° 0 mm 2 mps 752 mmHg 83%
    08:00 +4°C° 0 mm 2 mps 752 mmHg 79%
    09:00 +5°C° 0 mm 2 mps 752 mmHg 72%
    10:00 +7°C° 0 mm 2 mps 752 mmHg 66%
    11:00 +8°C° 0 mm 2 mps 753 mmHg 60%
    12:00 +9°C° 0 mm 3 mps 752 mmHg 59%
    13:00 +10°C° 0 mm 3 mps 752 mmHg 57%
    14:00 +11°C° 0 mm 3 mps 752 mmHg 56%
    15:00 +10°C° 0 mm 3 mps 752 mmHg 59%
    16:00 +10°C° 0 mm 2 mps 752 mmHg 63%
    17:00 +10°C° 0 mm 2 mps 752 mmHg 66%
    18:00 +9°C° 0 mm 2 mps 752 mmHg 71%
    19:00 +8°C° 0 mm 2 mps 752 mmHg 75%
    20:00 +8°C° 0 mm 1 mps 752 mmHg 80%
    21:00 +7°C° 0 mm 1 mps 752 mmHg 83%
    22:00 +7°C° 0 mm 1 mps 752 mmHg 87%
    23:00 +6°C° 0 mm 1 mps 752 mmHg 90%
    Show more